Location: Observatoire de Paris
(48.8363°N, 2.3365°E)
Time: 04:53:24
(UTC+01:00)

Explorer 7 - All Passes

Search period start: 26 July 2021 00:00
Search period end: 05 August 2021 00:00
Orbit: 484 x 676 km, 50.3° (Epoch: 25 July)

Date Brightness Start Highest point End Pass type
(mag) Time Alt. Az. Time Alt. Az. Time Alt. Az.
26 Jul - 07:31:45 10° S 07:34:45 21° SE 07:37:53 10° E daylight
26 Jul - 09:10:44 10° WSW 09:14:43 73° SSE 09:19:00 10° ENE daylight
26 Jul - 10:51:09 10° W 10:55:19 71° N 10:59:46 10° E daylight
26 Jul - 12:31:38 10° WNW 12:35:58 77° SSW 12:40:33 10° ESE daylight
26 Jul - 14:12:23 10° W 14:16:08 26° SW 14:20:02 10° SSE daylight
27 Jul - 07:35:25 10° SSW 07:38:52 30° SE 07:42:30 10° E daylight
27 Jul - 09:15:01 10° WSW 09:19:02 90° SSE 09:23:20 10° ENE daylight
27 Jul - 10:55:32 10° W 10:59:42 73° N 11:04:09 10° E daylight
27 Jul - 12:35:59 10° WNW 12:40:14 61° SSW 12:44:47 10° SE daylight
27 Jul - 14:17:08 10° W 14:20:14 18° SW 14:23:27 10° S daylight
28 Jul - 07:39:20 10° SW 07:43:02 43° SSE 07:46:58 10° ENE daylight
28 Jul - 09:19:21 10° W 09:23:22 79° NNW 09:27:41 10° ENE daylight
28 Jul - 10:59:52 10° WNW 11:04:04 80° NNE 11:08:32 10° E daylight
28 Jul - 12:40:21 10° WNW 12:44:29 45° SSW 12:48:52 10° SE daylight
28 Jul - 14:22:27 10° WSW 14:24:17 12° SW 14:26:10 10° SSW daylight
29 Jul - 06:05:12 10° S 06:07:28 15° SE 06:09:48 10° E daylight
29 Jul - 07:43:25 10° SW 07:47:16 59° SSE 07:51:20 10° ENE daylight
29 Jul - 09:23:43 10° W 09:27:45 72° N 09:32:03 10° E daylight
29 Jul - 11:04:13 10° WNW 11:08:25 88° S 11:12:53 10° ESE daylight
29 Jul - 12:44:47 10° W 12:48:41 33° SW 12:52:47 10° SSE daylight
30 Jul - 06:08:31 10° SSW 06:11:32 22° SE 06:14:41 10° E daylight
30 Jul - 07:47:38 10° WSW 07:51:32 77° SSE 07:55:41 10° ENE daylight
30 Jul - 09:28:05 10° W 09:32:07 71° N 09:36:26 10° E daylight
30 Jul - 11:08:32 10° WNW 11:12:43 73° SSW 11:17:10 10° ESE daylight
30 Jul - 12:49:22 10° W 12:52:50 23° SW 12:56:27 10° SSE daylight
31 Jul - 06:12:13 10° SSW 06:15:39 32° SE 06:19:15 10° E daylight
31 Jul - 07:51:57 10° WSW 07:55:51 87° NNW 08:00:01 10° ENE daylight
31 Jul - 09:32:27 10° W 09:36:30 74° N 09:40:48 10° E daylight
31 Jul - 11:12:53 10° WNW 11:16:59 56° SSW 11:21:21 10° SE daylight
31 Jul - 12:54:13 10° W 12:56:55 16° SW 12:59:43 10° S daylight
01 Aug - 04:39:34 10° SE 04:40:13 10° SE 04:40:53 10° ESE visible
01 Aug - 06:16:11 10° SW 06:19:50 45° SSE 06:23:41 10° ENE daylight
01 Aug - 07:56:17 10° W 08:00:12 76° N 08:04:22 10° ENE daylight
01 Aug - 09:36:48 10° WNW 09:40:51 82° NNE 09:45:11 10° E daylight
01 Aug - 11:17:16 10° W 11:21:13 41° SSW 11:25:24 10° SE daylight
01 Aug - 13:00:08 10° WSW 13:00:58 10° SW 13:01:48 10° SW daylight
02 Aug - 04:41:50 10° S 04:44:14 16° SE 04:46:42 10° E visible
02 Aug - 06:20:19 10° WSW 06:24:05 63° SSE 06:28:03 10° ENE daylight
02 Aug - 08:00:39 10° W 08:04:34 71° N 08:08:43 10° E daylight
02 Aug - 09:41:07 10° WNW 09:45:11 85° SSW 09:49:31 10° ESE daylight
02 Aug - 11:21:44 10° W 11:25:24 29° SW 11:29:15 10° SSE daylight
03 Aug - 04:45:15 10° SSW 04:48:19 24° SE 04:51:29 10° E visible
03 Aug - 06:24:33 10° WSW 06:28:22 81° SSE 06:32:23 10° ENE daylight
03 Aug - 08:05:02 10° W 08:08:56 70° N 08:13:05 10° E daylight
03 Aug - 09:45:27 10° WNW 09:49:29 68° SSW 09:53:46 10° ESE daylight
03 Aug - 11:26:22 10° W 11:29:32 21° SW 11:32:50 10° S daylight
04 Aug - 04:49:01 10° SSW 04:52:27 34° SSE 04:56:01 10° E visible
04 Aug - 06:28:51 10° WSW 06:32:41 84° NNW 06:36:43 10° ENE daylight
04 Aug - 08:09:22 10° WNW 08:13:18 75° N 08:17:28 10° E daylight
04 Aug - 09:49:48 10° WNW 09:53:45 51° SSW 09:57:56 10° SE daylight
04 Aug - 11:31:24 10° WSW 11:33:37 14° SW 11:35:54 10° SSW daylight
